CXA3025 ZLDH-ZLXY

Flight info

Callsign CXA3025
Flight time N/A
Altitude 37100
Route VIKUP1 VIKUP W191 DNC W565 BIGUX W214 HO HO1Z
Aircraft B38M/M-SDE1FGHILORVWXY/HB1

Departure

Time N/A
Airport Dunhuang Mogao International Airport (ZLDH)

Arrival

Time 2026-05-05 14:05
Airport Xi'an Xianyang International Airport (ZLXY)
Time Latitude Longitude Altitude Speed Heading
2026-05-05 13:43 35.33832 106.73702 33754 ft 522 kts 87°
2026-05-05 13:43 35.33884 106.78158 33471 ft 523 kts 87°
2026-05-05 13:44 35.33935 106.82612 33190 ft 523 kts 87°
2026-05-05 13:44 35.33984 106.87062 32910 ft 524 kts 87°
2026-05-05 13:44 35.34030 106.91524 32608 ft 524 kts 88°
2026-05-05 13:44 35.34008 106.95997 32306 ft 526 kts 94°
2026-05-05 13:45 35.33651 106.98923 32121 ft 526 kts 101°
2026-05-05 13:45 35.32742 107.04748 31777 ft 528 kts 101°
2026-05-05 13:45 35.32053 107.09180 31502 ft 528 kts 101°
2026-05-05 13:45 35.31352 107.13590 31242 ft 528 kts 101°
2026-05-05 13:46 35.30646 107.18005 30979 ft 528 kts 101°
2026-05-05 13:46 35.30177 107.20930 30797 ft 528 kts 101°
2026-05-05 13:46 35.29470 107.25338 30534 ft 528 kts 102°
2026-05-05 13:46 35.28759 107.29748 30272 ft 528 kts 102°
2026-05-05 13:47 35.28047 107.34157 30011 ft 528 kts 102°
2026-05-05 13:47 35.27336 107.38561 29742 ft 528 kts 102°
2026-05-05 13:47 35.26623 107.42962 29444 ft 527 kts 102°
2026-05-05 13:47 35.25677 107.48781 29069 ft 526 kts 102°
2026-05-05 13:48 35.24955 107.53167 28776 ft 526 kts 102°
2026-05-05 13:48 35.24224 107.57553 28488 ft 525 kts 102°
2026-05-05 13:48 35.23740 107.60455 28292 ft 525 kts 102°
2026-05-05 13:48 35.23009 107.64837 27998 ft 525 kts 102°
2026-05-05 13:49 35.22280 107.69205 27743 ft 525 kts 102°
2026-05-05 13:49 35.21425 107.73540 27452 ft 524 kts 109°
2026-05-05 13:49 35.19276 107.78749 27077 ft 517 kts 129°
2026-05-05 13:49 35.16955 107.82080 26835 ft 515 kts 134°
2026-05-05 13:50 35.14575 107.85354 26561 ft 515 kts 134°
2026-05-05 13:50 35.12178 107.88600 26313 ft 515 kts 135°
2026-05-05 13:50 35.10590 107.90731 25855 ft 509 kts 135°
2026-05-05 13:50 35.08190 107.93934 24756 ft 514 kts 135°
2026-05-05 13:51 35.05782 107.97140 24007 ft 509 kts 135°
2026-05-05 13:51 35.03404 108.00302 23382 ft 502 kts 135°
2026-05-05 13:51 35.01056 108.03414 22679 ft 495 kts 136°
2026-05-05 13:51 34.98486 108.06124 22027 ft 484 kts 145°
2026-05-05 13:52 34.95686 108.08289 21500 ft 470 kts 157°
2026-05-05 13:52 34.92705 108.09819 20882 ft 462 kts 159°
2026-05-05 13:52 34.88839 108.11919 19950 ft 453 kts 158°
2026-05-05 13:52 34.86947 108.12965 19192 ft 448 kts 158°
2026-05-05 13:53 34.84126 108.14540 18079 ft 444 kts 157°
2026-05-05 13:53 34.81343 108.16102 16922 ft 436 kts 157°
2026-05-05 13:53 34.78616 108.17633 15830 ft 428 kts 157°
2026-05-05 13:53 34.75074 108.19619 14448 ft 418 kts 157°
2026-05-05 13:54 34.73305 108.20611 13789 ft 413 kts 156°
2026-05-05 13:54 34.70720 108.22059 12762 ft 405 kts 157°
2026-05-05 13:54 34.68187 108.23476 11760 ft 397 kts 157°
2026-05-05 13:54 34.65734 108.24848 10841 ft 390 kts 157°
2026-05-05 13:55 34.63322 108.26196 10657 ft 373 kts 157°
2026-05-05 13:55 34.61025 108.27478 10665 ft 354 kts 157°
2026-05-05 13:55 34.58836 108.28701 10624 ft 339 kts 158°
2026-05-05 13:55 34.56728 108.29877 10507 ft 328 kts 158°
2026-05-05 13:56 34.54685 108.31016 10303 ft 319 kts 158°
2026-05-05 13:56 34.52700 108.32124 10191 ft 308 kts 158°
2026-05-05 13:56 34.50784 108.33192 10048 ft 299 kts 158°
2026-05-05 13:56 34.48934 108.34222 9803 ft 295 kts 158°
2026-05-05 13:57 34.47072 108.35259 9471 ft 294 kts 158°
2026-05-05 13:57 34.45216 108.36293 9130 ft 292 kts 158°
2026-05-05 13:57 34.43377 108.37316 8802 ft 290 kts 158°
2026-05-05 13:57 34.41550 108.38333 8496 ft 287 kts 158°
2026-05-05 13:58 34.39741 108.39339 8190 ft 285 kts 158°
2026-05-05 13:58 34.37947 108.40335 7899 ft 282 kts 157°
2026-05-05 13:58 34.36168 108.41323 7604 ft 280 kts 157°
2026-05-05 13:58 34.34430 108.42289 7321 ft 278 kts 157°
2026-05-05 13:59 34.30801 108.43672 6825 ft 268 kts 167°
2026-05-05 13:59 34.29066 108.44400 6686 ft 263 kts 153°
2026-05-05 14:00 34.27021 108.47864 6407 ft 260 kts 102°
2026-05-05 14:00 34.27113 108.50027 6229 ft 260 kts 76°
2026-05-05 14:00 34.27968 108.51956 5926 ft 264 kts 50°
2026-05-05 14:00 34.29255 108.53457 5710 ft 259 kts 44°
2026-05-05 14:01 34.30549 108.54978 5359 ft 259 kts 47°
2026-05-05 14:01 34.31786 108.56559 5027 ft 259 kts 49°
2026-05-05 14:01 34.32991 108.58169 4687 ft 258 kts 51°
2026-05-05 14:01 34.34181 108.59795 4355 ft 258 kts 50°
2026-05-05 14:02 34.35361 108.61414 4013 ft 252 kts 50°
2026-05-05 14:02 34.36488 108.62956 3699 ft 237 kts 50°
2026-05-05 14:02 34.37546 108.64408 3403 ft 224 kts 50°
2026-05-05 14:02 34.38532 108.65762 3174 ft 203 kts 50°
2026-05-05 14:03 34.39411 108.66968 2914 ft 185 kts 50°
2026-05-05 14:03 34.40216 108.68078 2701 ft 166 kts 48°
2026-05-05 14:03 34.40931 108.69064 2535 ft 148 kts 48°
2026-05-05 14:03 34.41606 108.70007 2341 ft 148 kts 48°
2026-05-05 14:04 34.42287 108.70940 2110 ft 147 kts 46°
2026-05-05 14:04 34.42982 108.71854 1941 ft 148 kts 47°
2026-05-05 14:04 34.43656 108.72793 1718 ft 147 kts 47°
2026-05-05 14:04 34.44327 108.73710 1517 ft 140 kts 47°
2026-05-05 14:05 34.44872 108.74470 1516 ft 93 kts 49°
2026-05-05 14:05 34.45155 108.74873 1509 ft 36 kts 57°
2026-05-05 14:05 34.45221 108.75064 1523 ft 24 kts 79°
2026-05-05 14:05 34.45246 108.75272 1523 ft 25 kts 102°
2026-05-05 14:06 34.45141 108.75405 1522 ft 19 kts 139°
2026-05-05 14:06 34.45052 108.75503 1518 ft 17 kts 137°
2026-05-05 14:06 34.44961 108.75602 1523 ft 18 kts 137°
2026-05-05 14:06 34.44862 108.75708 1523 ft 20 kts 143°
2026-05-05 14:07 34.44772 108.75795 1522 ft 16 kts 136°
2026-05-05 14:07 34.44684 108.75885 1522 ft 17 kts 141°
2026-05-05 14:07 34.44587 108.75878 1523 ft 14 kts 160°
2026-05-05 14:07 34.44546 108.75898 1523 ft 5 kts 154°
2026-05-05 14:08 34.44541 108.75901 1520 ft 0 kts 155°